Погода в Керчи

Поиск расширенной информации на нашем сайте:

Полезная информация:

Новости сайта



02.01.2020
Опубликован Долгосрочный прогноз погоды по городам России и ближнего зарубежья на январь 2020 года.
Карты: Прогноз на январь и февраль 2020 года, Сравнение прогнозируемой аномалии приземной температуры воздуха на январь 2020 года по разным моделям.




Погода в Керчи - сегодня

Время (UTC), дата Ветер
(°,м/с) 
Видим.   Явления Облачность Т
(°С)
Тd
(°С)
f(%) Тe
(°С)
Pmin
(гПа)
dP
(гПа)
Po
(мм)
O2
(г/м3)
Тmin Tmax R s Состояние
почвы
15 18.10.20 320 (СЗ) 7-10{11}  20000 м    4/0 средняя, верхняя 
[Ac trans|Ci fib]
+20.2 +9.8 51 +21  1014  0.7  756  282           
18 18.10.20 тихо ()   10 км    9/4 600 м средняя 
[Sc|Ac trans]
+16.8 +13.8 82 +23  1015.8  0.5  758  285    +24.3       
21 18.10.20 260 (З) 10 км    5/0 средняя 
[Ac trans]
+15.2 +13 87 +22  1016.2  0.3  758  287           
00 19.10.20 280 (З) 10 км    6/0 средняя 
[Ac trans]
+13.9 +11.5 85 +17  1016.6  0.4  758  288           
03 19.10.20 260 (З) 10 км    3/0 средняя 
[Ac trans]
+12.1 +10.8 92 +15  1016.8  0.2  758  291  +10.7         
06 19.10.20 240 (ЮЗ) 10 км    10/10 600 м кучево-дожд. 
[Cb calv]
+14 +12.5 91 +19  1017.4  0.6  759  288  +10.7         
09 19.10.20 260 (З) 10 км  {ливн. осадки}  10/6 600 м средняя 
[Sc|Ac trans]
+17.1 +15.4 90 +27  1017  -0.3  758  284           
12 19.10.20 350 (С) 7{11}  10 км  в посл. час ливневой дождь  8/8 600 м кучево-дожд. 
[Cb cap]
+15.3 +13.9 91 +22  1017.5  0.4  759  287           
15 19.10.20 320 (СЗ) 6{10}  10 км  ливневой дождь, в посл. час гроза  3/3 600 м кучево-дожд. 
[Cb cap]
+13.2 +10.9 86 +14  1019.8  2.3  760  290      18     
18 19.10.20 330 (СЗ) 10 км  {гроза, ливн. осадки}  3/3 600 м 
[Sc]
+12.9 +7.9 72 +12  1023  3.1  763  292    +17.9  18     
21 19.10.20 310 (СЗ) 10 км    3/3 600 м 
[Sc]
+12.5 +5.5 62 +12  1024.8  1.8  764  294           
00 20.10.20 300 (СЗ) 10 км    1/0 средняя 
[Ac trans]
+9.8 +6.6 80 +9  1025.3  0.5  764  296           
03 20.10.20 290 (З) 10 км    3/3 600 м 
[Sc]
+8.9 +5.7 80 +8  1025.7  0.3  765  298  +8.7         
06 20.10.20 310 (СЗ) 20000 м    8/6 600 м кучево-дожд., средняя 
[Cb calv|Ac trans]
+11.8 +7.3 74 +12  1026.4  0.8  765  294  +8.1         
09 20.10.20 320 (СЗ) 20000 м    8/5 600 м средняя 
[Sc diur, vesp|Ac trans]
+14 +6.6 61 +14  1026.9  0.5  766  292           
12 20.10.20 320 (СЗ) 6{10}  20000 м    8/8 600 м 
[Sc diur, vesp]
+14.4 +5.3 54 +14  1026.5  -0.4  765  292           
15 20.10.20 310 (СЗ) 20000 м    5/5 600 м 
[Sc diur, vesp]
+11.1 +5.7 69 +11  1026.9  0.4  766  296           
18 20.10.20 320 (СЗ) 20000 м    6/3 600 м средняя 
[Sc|Ac trans]
+11.6 +4.5 62 +11  1027.5  0.6  766  295    +16.2       
21 20.10.20 340 (С) 20000 м    8/4 600 м средняя 
[Sc|Ac trans]
+12.3 +4.7 60 +12  1028.7  1.2  767  295           
00 21.10.20 340 (С) 20000 м    8/0 средняя 
[Ac trans]
+11.8 +4.4 60 +12  1028.9  0.2  767  296           
03 21.10.20 340 (С) 20000 м    5/0 средняя 
[Ac trans]
+10.8 +5.2 68 +11  1029.5  0.5  768  297  +10.3         
06 21.10.20 тихо ()   20000 м    8/5 600 м верхняя 
[Sc|Ci fib]
+12.8 +7.3 69 +13  1029.4  768  294  +9.7         
09 21.10.20 120 (ЮВ) 20000 м    8/6 600 м верхняя 
[Sc|Ci fib]
+14.4 +6.1 57 +15  1029.6  0.2  768  293           
12 21.10.20 130 (ЮВ) 20000 м    8/0 верхняя 
[Cs]
+15 +6.4 56 +15  1027.9  -1.7  766  292           
15 21.10.20 070 (В) 20000 м    8/0 средняя, верхняя 
[Ac trans|Cs]
+12 +7.7 75 +12  1026.9  -1  766  294           
Время (UTC), дата Ветер
(°,м/с) 
Видим.   Явления Облачность Т
(°С)
Тd
(°С)
f(%) Тe
(°С)
Pmin
(гПа)
dP
(гПа)
Po
(мм)
O2
(г/м3)
Тmin Tmax R s Состояние
почвы

Для получения пояснительной информации подведите курсор к названию столбца.

ПОГОДА в Керчи - архив

Всё, что Вы хотите узнать о погоде в Керчи - удобно и подробно!

Выберите нужную дату (начиная с 1 января 2019* года) и нажмите кнопку "Найти".
Будут отображены архивные сводки погоды по пункту Керчь, начиная с указанной даты.


Отображать данные в формате CSV (для использования в таблицах Excel)


Внимание! Наш архив погоды предназначен исключительно для личного некоммерческого использования в познавательных целях. Если Вам необходимы официальные справки о состоянии погоды (для производственных, юридических, коммерческих и т.п. целей), обращайтесь в органы Росгидромета.

*Примечание: данная дата относится к архиву по метеостанциям СССР (Россия, СНГ, Балтия).
Архив по метеостанциям Зарубежной Европы и Азии (кроме Китая) хранится 10 дней, по другим регионам земного шара (Китай, Африка, Америка, Австралия, Океания) - 1 день.

Керчь - район местоположения метеостанции


Название, широта, долгота, высота метеостанции:
Керчь 45.4°ш. 36.4°д. 49 м над ур. моря [Российская Федерация]

Дополнительная информация

В oтличие oт бoльшинства пoгoдных сайтoв мы публикуем пoдрoбную метеoинфoрмацию в детальнoм прoфессиoнальнoм фoрмате.

Характеристики температуры и влажнoсти вoздуха измеряются на высoте 2 м в тени вдали oт зданий и деревьев.
Скoрoсть ветра измеряется на высoте 10 м (на урoвне рoста челoвека скoрoсть ветра ниже в 1.5-2 раза). Если метеoстанция нахoдится в гoрoде или в лесу, тo скoрoсть ветра занижена на 2-4 м/с пo сравнению с oткрытым местoм. Скoрoсть ветра над акватoриями крупных рек и oзёр, а также на вершинах хoлмoв на 2-5 м/с выше, чем в oбычных услoвиях.
Атмoсфернoе давление в разных тoчках местнoсти мoжет значительнo oтличаться oт давления на метеoстанции, в зависимoсти oт услoвий рельефа (при пoдъёме на 10 м давление пoнижается примернo на 1 мм рт.ст.).